Location: Bayview
(38.0070°N, 122.3188°W)
Time: 14:09:12
(UTC+00:00)

Tiangong - Visible Passes

Search period start: 29 September 2022 00:00
Search period end: 09 October 2022 00:00
Orbit: 381 x 385 km, 41.5° (Epoch: 29 September)

Date Brightness Start Highest point End Pass type
(mag) Time Alt. Az. Time Alt. Az. Time Alt. Az.
29 Sep -1.2 12:29:38 36° S 12:29:38 36° S 12:31:59 10° SE visible
30 Sep -0.1 13:05:15 14° SW 13:05:24 14° SW 13:07:10 10° S visible
06 Oct 0.9 03:48:02 10° SW 03:48:05 10° SW 03:48:05 10° SW visible
07 Oct -0.6 02:48:26 10° SSW 02:50:53 21° SSE 02:51:10 20° SE visible
08 Oct -1.1 03:24:05 10° WSW 03:26:19 40° SW 03:26:19 40° SW visible
